SES-1

Last updated on Sun Jun 21 2026 00:03:04 GMT+0000 (Coordinated Universal Time)

1 36516U 10016A 26171.35461541 -.00000119 00000+0 00000+0 0 9995 2 36516 0.0271 302.6251 0002701 143.4771 209.1172 1.00271007 59069
UTC large
Height (km)
Speed (km/s)
/
Latitude / Longitude
Inclination (degrees)
Orbital Period (minutes)
Azimuth
Elevation
Range (km)
Doppler Factor

Next 0 passes for location: London (51.5072 / 0.1276)

No passes found over London.
SES-1